This demonstration page uses our WeatherBlox Daily Observations layout. Learn more.

Left ArrowRight Arrow

Hourly Observations for February 13, 2019

Temp ( °F °C ) Dew Point ( °F °C ) Humidity (%) Winds ( mph kmh ) Pressure ( in mb ) Visibility ( mi km ) Precip ( " mm )
12:04 am 00:04 Cloudy with Light Snow 31 -0.6 26 -3.3 82 82 WSW 16 26 29.91 1013 2.5 4.02335 N/A
12:07 am 00:07 Windy with Snow Likely 31 -0.6 25 -3.9 79 79 WSW 21 33 29.91 1013 7 11.26538 N/A
12:53 am 00:53 Cloudy with Light Wintry Mix 31 -0.6 22 -5.6 69 69 W 21 33 29.89 1012 10 16.0934 N/A
1:53 am 01:53 Cloudy 31 -0.6 21 -6.1 67 67 W 24 39 29.9 1013 10 16.0934 N/A
2:53 am 02:53 Cloudy 31 -0.6 22 -5.6 69 69 WSW 17 28 29.91 1013 10 16.0934 N/A
3:53 am 03:53 Cloudy 30 -1.1 20 -6.7 66 66 W 16 26 29.91 1013 10 16.0934 N/A
4:53 am 04:53 Cloudy 29 -1.7 19 -7.2 66 66 W 15 24 29.93 1014 10 16.0934 N/A
5:53 am 05:53 Cloudy 28 -2.2 19 -7.2 69 69 W 18 30 29.95 1014 10 16.0934 N/A
6:53 am 06:53 Cloudy 28 -2.2 18 -7.8 66 66 W 14 22 29.98 1015 10 16.0934 N/A
7:53 am 07:53 Cloudy 27 -2.8 17 -8.3 66 66 W 16 26 30.01 1016 10 16.0934 N/A
8:53 am 08:53 Cloudy 27 -2.8 16 -8.9 63 63 W 20 31 30.04 1017 10 16.0934 N/A
9:53 am 09:53 Cloudy 28 -2.2 17 -8.3 63 63 W 20 31 30.06 1018 10 16.0934 N/A
10:53 am 10:53 Mostly Cloudy 30 -1.1 18 -7.8 61 61 WSW 14 22 30.08 1019 10 16.0934 N/A
11:53 am 11:53 Partly Cloudy 31 -0.6 19 -7.2 61 61 WSW 18 30 30.09 1019 10 16.0934 N/A
12:53 pm 12:53 Mostly Sunny 32 undefined 19 -7.2 59 59 W 21 33 30.08 1019 10 16.0934 N/A
1:53 pm 13:53 Sunny 35 1.7 21 -6.1 57 57 WSW 20 31 30.07 1018 10 16.0934 N/A
2:53 pm 14:53 Sunny 36 2.2 22 -5.6 57 57 W 14 22 30.06 1018 10 16.0934 N/A
3:53 pm 15:53 Sunny 36 2.2 21 -6.1 55 55 WSW 17 28 30.08 1019 10 16.0934 N/A
4:53 pm 16:53 Sunny 36 2.2 21 -6.1 55 55 WSW 15 24 30.07 1018 10 16.0934 N/A
5:53 pm 17:53 Sunny 34 1.1 21 -6.1 59 59 WSW 10 17 30.08 1019 10 16.0934 N/A
6:53 pm 18:53 Clear 33 0.6 21 -6.1 61 61 SW 6 9 30.09 1019 10 16.0934 N/A
7:53 pm 19:53 Clear 31 -0.6 22 -5.6 69 69 SSW 3 6 30.08 1019 10 16.0934 N/A
8:53 pm 20:53 Clear 31 -0.6 23 -5 72 72 SSW 3 6 30.07 1018 10 16.0934 N/A
9:53 pm 21:53 Clear 30 -1.1 24 -4.4 79 79 SW 5 7 30.07 1018 10 16.0934 N/A
10:53 pm 22:53 Clear 30 -1.1 25 -3.9 82 82 N N/A 30.07 1018 10 16.0934 N/A
11:53 pm 23:53 Clear 30 -1.1 26 -3.3 85 85 N N/A 30.07 1018 10 16.0934 N/A

Powered by AerisWeather